KB4SYV Bradenton FL US current weather conditions

sailwx.info

Wind from 325 at 3 knots gusting 9

Air temperature 22.2° C
Dewpoint 20.5° C

Last reported at 2018-Dec-14 19:05 UTC.
Time now 2018-Dec-14 19:18 UTC

Location: N 27°30' W 082°36'.
View on Google Maps.

See reports from other nearby stations

  
Tides and Currents Weather Stations Pressure Air Temp Water Temp Dewpoint Dewpoint Depression Visibility Wind Speed Wind Dir Waves Ship Positions
date/time (UTC)wind fromknots sea level pressurealtimeterstation pressurevisibilityair tempwater tempwave heightnotes
2018-Dec-14 19:05 325 3 gusting 9 22.2
2018-Dec-14 19:00 340 2 gusting 6 22.2
2018-Dec-14 18:55 302 1 gusting 6 21.7
2018-Dec-14 18:50 315 2 gusting 6 21.7
2018-Dec-14 18:45 332 1 gusting 6 21.7
2018-Dec-14 18:40 337 1 gusting 6 21.7
2018-Dec-14 18:35 340 0 gusting 6 21.7
2018-Dec-14 18:30 352 0 gusting 6 21.7
2018-Dec-14 18:25 352 0 gusting 6 21.7
2018-Dec-14 18:20 322 0 gusting 6 21.7
2018-Dec-14 18:15 346 0 gusting 7 21.1
2018-Dec-14 18:10 335 1 gusting 7 21.1
2018-Dec-14 18:05 336 0 gusting 8 21.7
2018-Dec-14 18:00 344 0 gusting 8 21.7
2018-Dec-14 17:55 328 1 gusting 8 21.7
2018-Dec-14 17:50 318 1 gusting 6 21.7
2018-Dec-14 17:45 334 0 gusting 6 21.7
2018-Dec-14 17:40 309 1 gusting 6 21.1
2018-Dec-14 17:35 332 0 gusting 7 21.1
2018-Dec-14 17:30 318 21.1
2018-Dec-14 17:25 285 0 gusting 7 21.1
2018-Dec-14 17:20 328 0 gusting 7 21.1
2018-Dec-14 17:15 274 0 gusting 6 21.1
2018-Dec-14 17:10 008 21.1
2018-Dec-14 17:05 328 1 gusting 6 21.1
2018-Dec-14 17:00 348 0 gusting 6 21.1
2018-Dec-14 16:55 311 0 gusting 6 20.6
2018-Dec-14 16:50 318 1 gusting 6 20.6
2018-Dec-14 16:45 315 20.6
2018-Dec-14 16:40 311 1 gusting 5 20.0
2018-Dec-14 16:35 304 1 gusting 5 20.0
2018-Dec-14 16:30 327 20.0
2018-Dec-14 16:25 296 20.0
2018-Dec-14 16:20 320 0 gusting 4 20.0
2018-Dec-14 16:15 282 20.0
2018-Dec-14 16:10 282 20.0
2018-Dec-14 16:05 301 20.0
2018-Dec-14 16:00 265 20.0
2018-Dec-14 15:55 304 0 gusting 5 20.0
2018-Dec-14 15:50 302 0 gusting 4 20.0
2018-Dec-14 15:45 292 0 gusting 4 20.0
2018-Dec-14 15:40 309 20.0
2018-Dec-14 15:35 225 20.0
2018-Dec-14 15:30 312 0 gusting 6 20.0
2018-Dec-14 15:25 304 20.0
2018-Dec-14 15:20 307 20.0
2018-Dec-14 15:15 280 0 gusting 6 20.0
2018-Dec-14 15:10 324 0 gusting 6 20.0
2018-Dec-14 15:05 292 0 gusting 6 20.0
2018-Dec-14 15:00 333 0 gusting 5 20.0
2018-Dec-14 14:55 300 0 gusting 6 20.0
2018-Dec-14 14:50 001 0 gusting 6 20.0
2018-Dec-14 14:45 318 1 gusting 6 20.0
2018-Dec-14 14:40 293 20.0
2018-Dec-14 14:35 345 1 gusting 6 20.0
2018-Dec-14 14:30 334 0 gusting 6 20.6
2018-Dec-14 14:25 328 2 gusting 7 20.6
2018-Dec-14 14:20 341 0 gusting 7 20.6
2018-Dec-14 14:15 342 0 gusting 6 20.6
2018-Dec-14 14:10 332 0 gusting 9 20.6
2018-Dec-14 14:05 328 3 gusting 9 20.6
2018-Dec-14 14:00 327 1 gusting 8 20.6
2018-Dec-14 13:55 316 2 gusting 8 20.6
2018-Dec-14 13:50 314 1 gusting 8 20.6
2018-Dec-14 13:45 336 1 gusting 6 20.6
2018-Dec-14 13:40 317 2 gusting 6 20.6
2018-Dec-14 13:35 321 3 gusting 6 20.6
2018-Dec-14 13:30 305 2 gusting 6 20.6
2018-Dec-14 13:25 313 2 gusting 8 20.6
2018-Dec-14 13:20 310 1 gusting 10 20.6
2018-Dec-14 13:15 336 4 gusting 10 20.6
2018-Dec-14 13:10 331 1 gusting 7 20.6
2018-Dec-14 13:05 326 1 gusting 7 20.6
2018-Dec-14 13:00 320 2 gusting 9 20.6
2018-Dec-14 12:55 329 2 gusting 9 20.6
2018-Dec-14 12:50 327 4 gusting 9 20.6
2018-Dec-14 12:45 323 2 gusting 9 20.6
2018-Dec-14 12:40 336 3 gusting 9 20.6
2018-Dec-14 12:35 309 2 gusting 7 20.6
2018-Dec-14 12:30 311 1 gusting 8 20.6
2018-Dec-14 12:25 327 3 gusting 8 20.6
2018-Dec-14 12:20 323 2 gusting 8 20.6
2018-Dec-14 12:15 307 1 gusting 8 20.6
2018-Dec-14 12:10 319 3 gusting 8 20.6
2018-Dec-14 12:05 319 1 gusting 7 20.0
2018-Dec-14 12:00 319 2 gusting 8 20.0
2018-Dec-14 11:55 318 2 gusting 8 20.0
2018-Dec-14 11:50 322 3 gusting 9 20.0
2018-Dec-14 11:45 314 3 gusting 9 20.0
2018-Dec-14 11:40 308 1 gusting 8 20.0
2018-Dec-14 11:35 305 0 gusting 8 19.4
2018-Dec-14 11:30 313 2 gusting 9 19.4
2018-Dec-14 11:25 311 1 gusting 9 19.4
2018-Dec-14 11:20 316 2 gusting 9 19.4
2018-Dec-14 11:15 318 2 gusting 9 19.4
2018-Dec-14 11:10 308 1 gusting 9 18.9
2018-Dec-14 11:05 308 2 gusting 7 18.9
2018-Dec-14 11:00 297 1 gusting 10 18.9
2018-Dec-14 10:55 301 3 gusting 10 19.4
2018-Dec-14 10:50 316 3 gusting 8 19.4
2018-Dec-14 10:45 316 3 gusting 8 19.4
2018-Dec-14 10:40 313 1 gusting 8 19.4
2018-Dec-14 10:35 311 1 gusting 8 19.4
2018-Dec-14 10:30 302 1 gusting 7 19.4
2018-Dec-14 10:25 308 2 gusting 7 19.4
2018-Dec-14 10:20 318 2 gusting 7 19.4
2018-Dec-14 10:15 314 2 gusting 7 19.4
2018-Dec-14 10:10 335 0 gusting 8 19.4
2018-Dec-14 10:05 322 2 gusting 8 19.4
2018-Dec-14 10:00 308 1 gusting 7 19.4
2018-Dec-14 09:55 316 2 gusting 8 19.4
2018-Dec-14 09:50 323 4 gusting 8 19.4
2018-Dec-14 09:45 328 2 gusting 7 19.4
2018-Dec-14 09:40 319 2 gusting 7 18.9
2018-Dec-14 09:35 320 1 gusting 7 18.9
2018-Dec-14 09:30 328 1 gusting 6 18.9
2018-Dec-14 09:25 296 1 gusting 6 18.9
2018-Dec-14 09:20 303 2 gusting 6 18.9
2018-Dec-14 09:15 304 1 gusting 6 18.9
2018-Dec-14 09:10 300 3 gusting 9 18.9
2018-Dec-14 09:05 310 2 gusting 9 18.9
2018-Dec-14 09:00 311 2 gusting 6 18.9
2018-Dec-14 08:55 308 1 gusting 7 18.9
2018-Dec-14 08:50 308 2 gusting 7 18.9
2018-Dec-14 08:45 300 1 gusting 10 18.9
2018-Dec-14 08:40 289 2 gusting 10 18.9
2018-Dec-14 08:35 310 1 gusting 10 18.9
2018-Dec-14 08:30 301 6 gusting 10 18.9
2018-Dec-14 08:25 300 3 gusting 8 18.9
2018-Dec-14 08:20 304 3 gusting 9 18.9
2018-Dec-14 08:15 306 3 gusting 9 18.9
2018-Dec-14 08:10 323 1 gusting 8 18.9
2018-Dec-14 08:05 327 1 gusting 8 18.9
2018-Dec-14 08:00 307 2 gusting 8 18.9
2018-Dec-14 07:55 316 2 gusting 8 18.9
2018-Dec-14 07:50 315 2 gusting 7 18.9
2018-Dec-14 07:45 312 1 gusting 7 18.9
2018-Dec-14 07:40 303 2 gusting 9 18.9
2018-Dec-14 07:35 296 3 gusting 9 18.9
2018-Dec-14 07:30 288 1 gusting 6 18.9
2018-Dec-14 07:25 313 3 gusting 8 18.9
2018-Dec-14 07:20 297 2 gusting 8 18.3
2018-Dec-14 07:15 304 2 gusting 8 18.3
2018-Dec-14 07:10 298 1 gusting 6 18.3
2018-Dec-14 07:05 296 2 gusting 6 18.3
2018-Dec-14 07:00 303 3 gusting 6 18.3
2018-Dec-14 06:55 284 1 gusting 6 18.3
2018-Dec-14 06:50 308 2 gusting 7 18.3
2018-Dec-14 06:45 306 2 gusting 7 18.3
2018-Dec-14 06:40 275 0 gusting 6 18.3
2018-Dec-14 06:35 308 2 gusting 6 18.3
2018-Dec-14 06:30 294 0 gusting 6 18.3
2018-Dec-14 06:25 294 1 gusting 6 18.3
2018-Dec-14 06:20 291 1 gusting 6 18.3
2018-Dec-14 06:15 296 1 gusting 7 18.3
2018-Dec-14 06:10 285 1 gusting 7 18.3
2018-Dec-14 06:05 269 0 gusting 6 18.3
2018-Dec-14 06:00 310 1 gusting 6 18.3
2018-Dec-14 05:55 282 1 gusting 6 18.3
2018-Dec-14 05:50 300 1 gusting 6 18.9
2018-Dec-14 05:45 277 0 gusting 5 18.9
2018-Dec-14 05:40 290 1 gusting 6 18.9
2018-Dec-14 05:35 297 1 gusting 6 18.9
2018-Dec-14 05:30 285 1 gusting 6 18.9
2018-Dec-14 05:25 297 0 gusting 5 18.9
2018-Dec-14 05:20 286 2 gusting 5 18.9
2018-Dec-14 05:15 274 18.9
2018-Dec-14 05:10 296 1 gusting 4 18.9
2018-Dec-14 05:05 258 18.9
2018-Dec-14 05:00 288 1 gusting 4 18.9
2018-Dec-14 04:55 304 18.9
2018-Dec-14 04:50 280 1 gusting 6 18.9
2018-Dec-14 04:45 289 1 gusting 6 19.4
2018-Dec-14 04:40 270 1 gusting 6 19.4
2018-Dec-14 04:35 278 0 gusting 7 19.4
2018-Dec-14 04:30 281 2 gusting 7 19.4
2018-Dec-14 04:25 281 1 gusting 6 19.4
2018-Dec-14 04:20 277 1 gusting 5 19.4
2018-Dec-14 04:15 289 1 gusting 6 19.4
2018-Dec-14 04:10 300 2 gusting 6 19.4
2018-Dec-14 04:05 272 1 gusting 6 19.4
2018-Dec-14 04:00 279 0 gusting 6 19.4
2018-Dec-14 03:55 285 2 gusting 6 19.4
2018-Dec-14 03:50 273 0 gusting 6 19.4
2018-Dec-14 03:45 274 3 gusting 6 19.4
2018-Dec-14 03:40 287 3 gusting 6 19.4
2018-Dec-14 03:35 288 2 gusting 8 19.4
2018-Dec-14 03:30 289 2 gusting 8 19.4
2018-Dec-14 03:25 287 2 gusting 7 19.4
2018-Dec-14 03:20 281 3 gusting 6 19.4
2018-Dec-14 03:15 290 0 gusting 7 19.4
2018-Dec-14 03:10 294 1 gusting 7 20.0
2018-Dec-14 03:05 287 3 gusting 7 20.0
2018-Dec-14 03:00 293 2 gusting 7 19.4
2018-Dec-14 02:55 289 2 gusting 6 19.4
2018-Dec-14 02:50 293 2 gusting 7 19.4
2018-Dec-14 02:45 288 1 gusting 7 19.4
2018-Dec-14 02:40 301 1 gusting 6 20.0
2018-Dec-14 02:35 296 2 gusting 6 20.0
2018-Dec-14 02:30 295 1 gusting 9 20.0
2018-Dec-14 02:25 289 2 gusting 9 20.0
2018-Dec-14 02:20 291 2 gusting 5 20.0
2018-Dec-14 02:15 300 0 gusting 6 20.0
2018-Dec-14 02:10 283 1 gusting 6 20.0
2018-Dec-14 02:05 301 1 gusting 4 20.0
2018-Dec-14 02:00 278 0 gusting 4 20.0
2018-Dec-14 01:55 287 0 gusting 4 20.0
2018-Dec-14 01:50 291 0 gusting 4 20.0
2018-Dec-14 01:45 260 0 gusting 4 20.0
2018-Dec-14 01:40 297 0 gusting 6 20.6
2018-Dec-14 01:35 306 2 gusting 6 20.6
2018-Dec-14 01:30 312 0 gusting 4 20.6
2018-Dec-14 01:25 306 1 gusting 4 20.0
2018-Dec-14 01:20 304 0 gusting 3 20.0
2018-Dec-14 01:15 251 20.0
2018-Dec-14 01:10 251 20.0
2018-Dec-14 01:05 251 20.0
2018-Dec-14 01:00 251 20.0
2018-Dec-14 00:55 251 20.0
2018-Dec-14 00:50 259 20.0
2018-Dec-14 00:45 299 20.0
2018-Dec-14 00:40 299 20.0
2018-Dec-14 00:35 299 20.0
2018-Dec-14 00:30 299 20.0
2018-Dec-14 00:25 299 20.0
2018-Dec-14 00:20 299 20.0
2018-Dec-14 00:15 299 20.0
2018-Dec-14 00:10 299 20.0
2018-Dec-14 00:05 299 20.0
2018-Dec-14 00:00 299 20.0
2018-Dec-13 23:55 299 20.6
2018-Dec-13 23:50 299 20.6
2018-Dec-13 23:45 299 20.6
2018-Dec-13 23:40 299 20.6
2018-Dec-13 23:35 299 20.6
2018-Dec-13 23:30 299 20.6
2018-Dec-13 23:25 299 20.6
2018-Dec-13 23:20 299 20.6
2018-Dec-13 23:15 299 21.1
2018-Dec-13 23:10 299 21.1
2018-Dec-13 23:05 299 21.1
2018-Dec-13 23:00 299 21.1
2018-Dec-13 22:55 299 21.1
2018-Dec-13 22:50 299 21.1
2018-Dec-13 22:45 299 21.1
2018-Dec-13 22:40 299 21.7
2018-Dec-13 22:35 299 21.7
2018-Dec-13 22:30 299 21.7
2018-Dec-13 22:25 299 21.7
2018-Dec-13 22:20 299 21.7
2018-Dec-13 22:15 299 21.7
2018-Dec-13 22:10 299 21.7
2018-Dec-13 22:05 299 22.2
2018-Dec-13 22:00 299 22.2
2018-Dec-13 21:55 001 22.2
2018-Dec-13 21:50 330 0 gusting 6 22.2
2018-Dec-13 21:45 321 0 gusting 3 22.2
2018-Dec-13 21:40 313 0 gusting 3 22.2
2018-Dec-13 21:35 291 22.8
2018-Dec-13 21:30 223 22.8
2018-Dec-13 21:25 293 22.8
2018-Dec-13 21:20 320 0 gusting 6 22.8
2018-Dec-13 21:15 297 1 gusting 6 22.8
2018-Dec-13 21:10 294 0 gusting 6 22.8
2018-Dec-13 21:05 297 3 gusting 6 23.3
2018-Dec-13 21:00 292 1 gusting 4 23.3
2018-Dec-13 20:55 315 23.3
2018-Dec-13 20:50 309 1 gusting 6 23.3
2018-Dec-13 20:45 293 1 gusting 4 23.3
2018-Dec-13 20:40 303 1 gusting 7 23.3
2018-Dec-13 20:35 308 2 gusting 7 23.3
2018-Dec-13 20:30 291 1 gusting 6 23.3
2018-Dec-13 20:25 303 2 gusting 6 23.3
2018-Dec-13 20:20 306 0 gusting 6 23.3
2018-Dec-13 20:15 287 1 gusting 6 22.8
2018-Dec-13 20:10 294 2 gusting 6 23.3
2018-Dec-13 20:05 307 1 gusting 6 23.3
2018-Dec-13 20:00 310 1 gusting 6 23.3
2018-Dec-13 19:55 304 3 gusting 7 23.3
2018-Dec-13 19:50 296 2 gusting 7 23.3
2018-Dec-13 19:45 279 2 gusting 6 23.3
2018-Dec-13 19:40 290 3 gusting 6 23.3
2018-Dec-13 19:35 301 1 gusting 6 22.8
2018-Dec-13 19:30 292 2 gusting 6 22.8
2018-Dec-13 19:25 291 3 gusting 6 22.8
2018-Dec-13 19:20 279 1 gusting 5 22.8
2018-Dec-13 19:15 290 22.8
2018-Dec-13 19:10 287 0 gusting 6 22.8
2018-Dec-13 19:05 284 1 gusting 6 22.8
2018-Dec-13 19:00 287 1 gusting 6 22.8
2018-Dec-13 18:55 292 2 gusting 6 23.3
2018-Dec-13 18:50 302 1 gusting 6 23.3
2018-Dec-13 18:45 276 3 gusting 6 23.3
2018-Dec-13 18:40 278 0 gusting 6 23.3
2018-Dec-13 18:35 284 2 gusting 6 23.3
2018-Dec-13 18:30 286 1 gusting 6 22.8
2018-Dec-13 18:25 268 2 gusting 6 22.8
2018-Dec-13 18:20 276 1 gusting 6 22.8
2018-Dec-13 18:15 272 2 gusting 6 22.8
2018-Dec-13 18:10 283 1 gusting 5 23.3
2018-Dec-13 18:05 290 1 gusting 5 22.8
2018-Dec-13 18:00 254 0 gusting 10 22.8
2018-Dec-13 17:55 282 1 gusting 10 22.8
2018-Dec-13 17:50 284 1 gusting 6 22.2
2018-Dec-13 17:45 263 2 gusting 6 22.2
2018-Dec-13 17:40 270 2 gusting 7 22.2
2018-Dec-13 17:35 280 3 gusting 7 22.8
2018-Dec-13 17:30 286 2 gusting 7 22.8
2018-Dec-13 17:25 297 3 gusting 9 22.8
2018-Dec-13 17:20 304 2 gusting 9 22.8
2018-Dec-13 17:15 274 4 gusting 8 22.8
2018-Dec-13 17:10 273 2 gusting 7 22.8
2018-Dec-13 17:05 269 3 gusting 8 22.8
2018-Dec-13 17:00 273 4 gusting 8 22.2
2018-Dec-13 16:55 261 4 gusting 8 22.2
2018-Dec-13 16:50 277 4 gusting 8 22.2
2018-Dec-13 16:45 254 2 gusting 5 22.2
2018-Dec-13 16:40 264 0 gusting 7 22.2
2018-Dec-13 16:35 268 3 gusting 7 21.7
2018-Dec-13 16:30 289 3 gusting 7 21.7
2018-Dec-13 16:25 262 1 gusting 5 21.1
2018-Dec-13 16:20 266 1 gusting 6 21.1
2018-Dec-13 16:15 256 2 gusting 6 20.6
2018-Dec-13 16:10 252 0 gusting 6 20.0
2018-Dec-13 16:05 276 3 gusting 6 20.0
2018-Dec-13 16:00 256 2 gusting 6 20.0
2018-Dec-13 15:55 276 2 gusting 6 20.0
2018-Dec-13 15:50 261 0 gusting 5 20.0
2018-Dec-13 15:45 270 1 gusting 8 20.0
2018-Dec-13 15:40 274 3 gusting 8 19.4
2018-Dec-13 15:35 254 0 gusting 5 19.4
2018-Dec-13 15:30 248 1 gusting 4 19.4
2018-Dec-13 15:25 261 1 gusting 5 18.9
2018-Dec-13 15:20 269 1 gusting 5 18.9
2018-Dec-13 15:15 260 0 gusting 3 18.9
2018-Dec-13 15:10 272 1 gusting 5 18.3
2018-Dec-13 15:05 255 0 gusting 5 18.3
2018-Dec-13 15:00 264 2 gusting 4 18.3
2018-Dec-13 14:55 268 1 gusting 6 18.3
2018-Dec-13 14:50 239 0 gusting 6 17.8
2018-Dec-13 14:45 245 17.2
2018-Dec-13 14:40 241 0 gusting 3 17.2
2018-Dec-13 14:35 254 0 gusting 5 16.7
2018-Dec-13 14:30 247 16.7
2018-Dec-13 14:25 231 16.7
2018-Dec-13 14:20 212 16.1
2018-Dec-13 14:15 237 16.1
2018-Dec-13 14:10 221 16.1
2018-Dec-13 14:05 219 15.6
2018-Dec-13 14:00 208 15.6
2018-Dec-13 13:55 237 15.6
2018-Dec-13 13:50 237 15.0
2018-Dec-13 13:45 236 15.0
2018-Dec-13 13:40 222 15.0
2018-Dec-13 13:35 222 14.4
2018-Dec-13 13:30 223 14.4
2018-Dec-13 13:25 226 0 gusting 3 14.4
2018-Dec-13 13:20 160 14.4
2018-Dec-13 13:15 160 14.4
2018-Dec-13 13:10 160 13.9
2018-Dec-13 13:05 160 13.9
2018-Dec-13 13:00 160 13.9
2018-Dec-13 12:55 181 13.9
2018-Dec-13 12:50 181 13.9
2018-Dec-13 12:45 181 13.9
2018-Dec-13 12:40 181 13.9
2018-Dec-13 12:35 181 13.9
2018-Dec-13 12:30 181 13.9
2018-Dec-13 12:25 180 13.9
2018-Dec-13 12:20 177 13.9
2018-Dec-13 12:15 177 13.9
2018-Dec-13 12:10 177 13.9
2018-Dec-13 12:05 177 13.9
2018-Dec-13 12:00 177 13.9
2018-Dec-13 11:55 177 13.9
2018-Dec-13 11:50 208 13.9
2018-Dec-13 11:45 208 13.9
2018-Dec-13 11:40 208 13.9
2018-Dec-13 11:35 226 13.9
2018-Dec-13 11:30 221 13.9
2018-Dec-13 11:25 226 0 gusting 4 13.9
2018-Dec-13 11:20 230 0 gusting 4 13.9
2018-Dec-13 11:15 206 13.9
2018-Dec-13 11:10 206 13.9
2018-Dec-13 11:05 206 13.9
2018-Dec-13 11:00 254 13.9
2018-Dec-13 10:55 218 0 gusting 4 13.9
2018-Dec-13 10:50 248 0 gusting 4 13.9
2018-Dec-13 10:45 210 13.9
2018-Dec-13 10:40 238 0 gusting 5 13.3
2018-Dec-13 10:35 243 0 gusting 6 13.3
2018-Dec-13 10:30 244 2 gusting 6 13.3
2018-Dec-13 10:25 239 1 gusting 4 13.3
2018-Dec-13 10:20 222 13.3
2018-Dec-13 10:15 254 13.3
2018-Dec-13 10:10 234 0 gusting 5 13.3
2018-Dec-13 10:05 251 0 gusting 5 13.3
2018-Dec-13 10:00 240 0 gusting 5 13.3
2018-Dec-13 09:55 245 1 gusting 6 13.3
2018-Dec-13 09:50 232 2 gusting 6 13.3
2018-Dec-13 09:45 243 1 gusting 4 13.3
2018-Dec-13 09:40 248 1 gusting 4 13.3
2018-Dec-13 09:35 234 1 gusting 6 13.3
2018-Dec-13 09:30 230 0 gusting 6 13.3
2018-Dec-13 09:25 239 0 gusting 5 13.3
2018-Dec-13 09:20 244 1 gusting 5 13.3
2018-Dec-13 09:15 234 0 gusting 4 13.3
2018-Dec-13 09:10 245 0 gusting 3 13.3
2018-Dec-13 09:05 195 13.3
2018-Dec-13 09:00 236 0 gusting 3 13.3
2018-Dec-13 08:55 214 13.3
2018-Dec-13 08:50 232 13.3
2018-Dec-13 08:45 228 13.3
2018-Dec-13 08:40 237 0 gusting 3 13.3
2018-Dec-13 08:35 234 13.3
2018-Dec-13 08:30 238 13.3
2018-Dec-13 08:25 245 1 gusting 3 13.3
2018-Dec-13 08:20 183 13.3
2018-Dec-13 08:15 241 13.3
2018-Dec-13 08:10 215 13.3
2018-Dec-13 08:05 247 13.3
2018-Dec-13 08:00 249 0 gusting 2 13.3
2018-Dec-13 07:55 220 13.3
2018-Dec-13 07:50 236 13.3
2018-Dec-13 07:45 236 13.3
2018-Dec-13 07:40 245 13.3
2018-Dec-13 07:35 246 13.3
2018-Dec-13 07:30 236 0 gusting 2 13.3
2018-Dec-13 07:25 212 13.3
2018-Dec-13 07:20 212 13.3
2018-Dec-13 07:15 241 0 gusting 3 13.3
2018-Dec-13 07:10 236 0 gusting 3 13.3
2018-Dec-13 07:05 235 13.3
2018-Dec-13 07:00 223 0 gusting 4 13.3
2018-Dec-13 06:55 202 13.3
2018-Dec-13 06:50 253 0 gusting 3 13.3
2018-Dec-13 06:45 231 0 gusting 3 13.3
2018-Dec-13 06:40 208 13.3
2018-Dec-13 06:35 208 13.3
2018-Dec-13 06:30 249 0 gusting 3 13.3
2018-Dec-13 06:25 235 13.3
2018-Dec-13 06:20 254 13.3
2018-Dec-13 06:15 260 13.3
2018-Dec-13 06:10 241 0 gusting 4 13.3
2018-Dec-13 06:05 250 1 gusting 4 13.3
2018-Dec-13 06:00 249 1 gusting 6 13.3
2018-Dec-13 05:55 252 13.3
2018-Dec-13 05:50 191 13.3
2018-Dec-13 05:45 248 13.9
2018-Dec-13 05:40 248 13.9
2018-Dec-13 05:35 248 13.9
2018-Dec-13 05:30 248 13.9
2018-Dec-13 05:25 242 13.9
2018-Dec-13 05:20 243 13.9
2018-Dec-13 05:15 222 13.9
2018-Dec-13 05:10 213 13.9
2018-Dec-13 05:05 264 13.9
2018-Dec-13 05:00 263 0 gusting 4 13.9
2018-Dec-13 04:55 168 13.9
2018-Dec-13 04:50 224 13.9
2018-Dec-13 04:45 225 13.9
2018-Dec-13 04:40 225 13.9
2018-Dec-13 04:35 236 1 gusting 4 13.9
2018-Dec-13 04:30 154 13.9
2018-Dec-13 04:25 187 13.9
2018-Dec-13 04:20 242 1 gusting 6 13.9
2018-Dec-13 04:15 242 1 gusting 4 13.9
2018-Dec-13 04:10 233 0 gusting 2 13.9
2018-Dec-13 04:05 235 13.9
2018-Dec-13 04:00 247 0 gusting 3 13.9
2018-Dec-13 03:55 257 13.9
2018-Dec-13 03:50 225 0 gusting 4 13.9
2018-Dec-13 03:45 239 0 gusting 3 13.9
2018-Dec-13 03:40 232 13.9
2018-Dec-13 03:35 229 13.9
2018-Dec-13 03:30 243 0 gusting 3 13.9
2018-Dec-13 03:25 239 13.9
2018-Dec-13 03:20 239 13.9
2018-Dec-13 03:15 247 13.9
2018-Dec-13 03:10 248 13.9
2018-Dec-13 03:05 241 13.9
2018-Dec-13 03:00 235 13.9
2018-Dec-13 02:55 210 13.9
2018-Dec-13 02:50 195 13.9
2018-Dec-13 02:45 201 13.9
2018-Dec-13 02:40 201 13.9
2018-Dec-13 02:35 201 13.9
2018-Dec-13 02:30 201 13.9
2018-Dec-13 02:25 201 13.9
2018-Dec-13 02:20 201 13.9
2018-Dec-13 02:15 201 13.9
2018-Dec-13 02:10 201 13.9
2018-Dec-13 02:05 201 13.9
2018-Dec-13 02:00 201 13.9
2018-Dec-13 01:55 201 13.9
2018-Dec-13 01:50 201 13.9
2018-Dec-13 01:45 201 13.9
2018-Dec-13 01:40 201 13.9
2018-Dec-13 01:35 201 13.9
2018-Dec-13 01:30 201 13.9
2018-Dec-13 01:25 201 13.9
2018-Dec-13 01:20 201 13.9
2018-Dec-13 01:15 201 13.9
2018-Dec-13 01:10 201 13.9
2018-Dec-13 01:05 201 13.9
2018-Dec-13 01:00 201 13.9
2018-Dec-13 00:55 201 13.9
2018-Dec-13 00:50 201 14.4
2018-Dec-13 00:45 201 14.4
2018-Dec-13 00:40 201 14.4
2018-Dec-13 00:35 201 14.4
2018-Dec-13 00:30 201 14.4
2018-Dec-13 00:25 201 14.4
2018-Dec-13 00:20 201 14.4
2018-Dec-13 00:15 178 14.4
2018-Dec-13 00:10 178 13.9
2018-Dec-13 00:05 178 14.4
2018-Dec-13 00:00 178 14.4
2018-Dec-12 23:55 178 14.4
2018-Dec-12 23:50 178 14.4
2018-Dec-12 23:45 178 14.4
2018-Dec-12 23:40 178 14.4
2018-Dec-12 23:35 178 14.4
2018-Dec-12 23:30 178 14.4
2018-Dec-12 23:25 178 14.4
2018-Dec-12 23:20 178 14.4
2018-Dec-12 23:15 178 14.4
2018-Dec-12 23:10 178 15.0
2018-Dec-12 23:05 178 15.0
2018-Dec-12 23:00 178 15.0
2018-Dec-12 22:55 178 15.0
2018-Dec-12 22:50 178 15.0
2018-Dec-12 22:45 178 15.6
2018-Dec-12 22:40 178 15.6
2018-Dec-12 22:35 178 15.6
2018-Dec-12 22:30 178 16.1
2018-Dec-12 22:25 178 16.1
2018-Dec-12 22:20 182 16.1
2018-Dec-12 22:15 178 16.7
2018-Dec-12 22:10 154 16.7
2018-Dec-12 22:05 194 16.7
2018-Dec-12 22:00 224 16.7
2018-Dec-12 21:55 196 16.7
2018-Dec-12 21:50 169 16.7
2018-Dec-12 21:45 230 16.7
2018-Dec-12 21:40 203 16.7
2018-Dec-12 21:35 206 16.7
2018-Dec-12 21:30 174 16.7
2018-Dec-12 21:25 177 0 gusting 4 16.7
2018-Dec-12 21:20 132 16.7
2018-Dec-12 21:15 192 0 gusting 3 16.7
2018-Dec-12 21:10 147 0 gusting 3 17.2
2018-Dec-12 21:05 135 0 gusting 4 17.2
2018-Dec-12 21:00 159 2 gusting 5 17.2
2018-Dec-12 20:55 144 1 gusting 5 17.2
2018-Dec-12 20:50 172 1 gusting 5 17.2
2018-Dec-12 20:45 160 0 gusting 6 17.8
2018-Dec-12 20:40 168 1 gusting 6 17.8
2018-Dec-12 20:35 159 3 gusting 6 17.8
2018-Dec-12 20:30 151 0 gusting 4 18.3
2018-Dec-12 20:25 156 0 gusting 4 18.3
2018-Dec-12 20:20 172 0 gusting 3 18.3
2018-Dec-12 20:15 192 1 gusting 4 18.9
2018-Dec-12 20:10 179 1 gusting 4 18.9
2018-Dec-12 20:05 223 0 gusting 4 18.9
2018-Dec-12 20:00 185 0 gusting 4 18.3
2018-Dec-12 19:55 181 0 gusting 4 18.3
2018-Dec-12 19:50 198 18.9
2018-Dec-12 19:45 234 0 gusting 4 18.3
2018-Dec-12 19:40 202 18.3
2018-Dec-12 19:35 202 18.3
2018-Dec-12 19:30 228 0 gusting 4 18.3
2018-Dec-12 19:25 198 18.3
2018-Dec-12 19:20 237 1 gusting 5 18.3
2018-Dec-12 19:15 224 0 gusting 4 17.8
2018-Dec-12 19:10 240 17.8
2018-Dec-12 19:05 241 0 gusting 2 17.8
2018-Dec-12 19:00 156 17.8